STARLINK-3791 (52269 NORAD) Tracking and Keplerian Element Data
This shows tracking and keplerian element data for the satellite.
Feedback or suggestion? Click here.
Element | Value |
Catalog | 52269 |
Name | STARLINK-3791 |
Epoch Orbit | 130 |
Epoch Day | 167.08334491 |
Epoch Year | 2022 |
RAAN | 106.8006 |
Inclination | 53.2173 |
Eccentricity | 0.0001675 |
Argument of Perigee | 46.1538 |
Mean Anonmoly | 38.8449 |
Mean Motion | 15.26151915 |
Decay Rate | -0.00728353 |
L1 | 1 52269U 22041J 22167.08334491 -.00728353 00000+0 -29846-1 0 9992 |
L2 | 2 52269 53.2173 106.8006 0001675 46.1538 38.8449 15.26151915 1300 |
Live tracking and technical data element details for STARLINK-3791 (NORAD 52269). STARLINK-3791 can be tracked NOW for your location showing map with azimuth and elevation plus other details from your city location.
Track the satellite on the map from your city or location and see movement details for azimuth, elevation, latitude, longitude, range, height, and movement on the map or in text.
IsCatalogInMostPopularTable: catalog: 52269, numindb: 2
Update: records affected: 1
GetName: 52269 STARLINK-3791
Hit Count: updated at: Mon, 27 Jun 2022 04:40:35 GMT